User: anonymous   Login
Location: Caltech
(34.1382°N, 118.1253°W)
Time: 08:39:38
(UTC-07:00)
Language:

SPOT 1/Viking Rocket - Orbit

View from above orbital plane
View from above orbital plane
View from above satellite
View from above satellite

Ground track
Ground track

The orbit data is extracted from the following two-line orbital elements,

1 16615U 86019C   17176.19854340 +.00000015 +00000-0 +22116-4 0  9991
2 16615 098.6111 243.3640 0012194 027.7697 033.2078 14.31660275640563
Epoch (UTC): 25 June 2017 04:45:54
Eccentricity: 0.0012194
inclination: 98.6111°
perigee height: 777 km
apogee height: 795 km
right ascension of ascending node: 243.3640°
argument of perigee: 27.7697°
revolutions per day: 14.31660275
mean anomaly at epoch: 33.2078°
orbit number at epoch: 64056

The dashed part of the orbit path shows where the satellite is in the earth's shadow,  

DLR